Location: DARK SKY Beskydy - Park tmavé oblohy, www.darkskybeskydy.cz
(49.4926°N, 18.5016°E)
Time: 12:06:25
(UTC+02:00)

BlueWalker 3 - Pass Details

Date: 19 June 2024
Orbit: 480 x 491 km, 53.2° (Epoch: 23 July)

Event Time Altitude Azimuth Distance (km) Brightness Sun altitude
Rises 01:25:53 0° 282° (WNW) 2,537 5.6 -16.6°
Reaches altitude 10° 01:28:06 10° 288° (WNW) 1,657 4.7 -16.5°
Maximum altitude 01:31:43 46° 3° (N) 657 3.0 -16.4°
Drops below altitude 10° 01:35:20 10° 78° (ENE) 1,657 4.9 -16.3°
Sets 01:37:33 0° 85° (E) 2,536 5.7 -16.2°
